Home > Weather > Waco > Past weeks

Flag for USA Past Weather in Waco, Texas, USA — Yesterday and Last 2 Weeks

Now
87 °F

Sunny.


Feels Like: 93 °F
Forecast: 76 / 92 °F
Wind: 9 mph from Southwest

Location: Waco Regional Airport

Current Time: Jul 27, 2016 at 10:22:19 AM

Latest Report: Jul 27, 2016 at 9:51 AM


Visibility: 10 mi

Pressure: 29.95 "Hg

Humidity: 59%

Dew Point: 71 °F

Location of WacoLocation

Past Weather in Waco — Graph

°F

Waco Temperature Yesterday

Maximum temperature yesterday: 95 °F (at 3:51 PM)
Minimum temperature yesterday: 74 °F (at 12:51 AM)
Average temperature yesterday: 84 °F

High & Low Weather Summary for the Past Weeks

 TemperatureHumidityPressure
High102 °F (Jul 25, 3:51 PM)94% (Jul 26, 12:51 AM)30.18 "Hg (Jul 26, 12:51 AM)
Low74 °F (Jul 26, 12:51 AM)28% (Jul 22, 3:51 PM)29.83 "Hg (Jul 23, 6:51 PM)
Average88 °F58%29.98 "Hg
* Reported Jul 12 8:51 AM — Jul 27 8:51 AM, Waco, Weather by CustomWeather, © 2016

Note: Actual official high and low records may vary slightly from our data, if they occured in-between our weather recording intervals... More about our weather records

Advertising

Waco Weather History for the Previous 24 Hours

Scroll right to see more
 ConditionsComfort  
Time TempWeatherWind HumidityBarometerVisibility
8:51 AM
Wed, Jul 27
82 °FSunny.8 mph72%29.96 "Hg10 mi
7:51 AM78 °FSunny.8 mph82%29.94 "Hg10 mi
6:51 AM76 °FClear.6 mph88%29.93 "Hg10 mi
5:51 AM77 °FClear.7 mph85%29.90 "Hg10 mi
4:51 AM77 °FClear.6 mph82%29.90 "Hg10 mi
3:51 AM78 °FClear.7 mph79%29.90 "Hg10 mi
2:51 AM78 °FClear.8 mph82%29.89 "Hg10 mi
1:51 AM79 °FClear.7 mph79%29.89 "Hg10 mi
12:51 AM80 °FClear.8 mph74%29.90 "Hg10 mi
11:51 PM
Tue, Jul 26
82 °FClear.12 mph72%29.90 "Hg10 mi
10:51 PM84 °FClear.13 mph67%29.90 "Hg10 mi
9:51 PM86 °FClear.13 mph63%29.88 "Hg10 mi
8:51 PM87 °FSunny.6 mph55%29.86 "Hg10 mi
7:51 PM92 °FSunny.7 mph44%29.85 "Hg10 mi
6:51 PM94 °FSunny.6 mph41%29.84 "Hg10 mi
5:51 PM94 °FSunny.9 mph40%29.85 "Hg10 mi
4:51 PM95 °FSunny.7 mph41%29.84 "Hg10 mi
3:51 PM95 °FSunny.8 mph43%29.86 "Hg10 mi
2:51 PM94 °FScattered clouds.8 mph46%29.88 "Hg10 mi
1:51 PM92 °FPartly sunny.7 mph49%29.91 "Hg10 mi
12:51 PM89 °FScattered clouds.6 mph53%29.94 "Hg10 mi
11:51 AM88 °FScattered clouds.6 mph59%29.95 "Hg10 mi
10:51 AM86 °FPassing clouds.5 mph65%29.95 "Hg10 mi
Weather by CustomWeather, © 2016

See weather overviewHow to use our weather pages